星链-34267 (STARLINK-34267)

导读

STARLINK-34267是美国SpaceX星链星座的成员卫星,于2025年8月4日发射入轨。星链计划旨在打造全球覆盖的低轨互联网星座,计划部署超过四万颗卫星,可为全球偏远地区提供高速互联网接入服务,同时具备军事应用潜力。该卫星秉承星链低成本量产理念,依托一箭多星发射技术入轨,将进一步补全球星链网络,提升星座服务容量与覆盖范围,推动全球卫星互联网商业化落地,巩固SpaceX在低轨卫星领域的领先地位。

基本信息
目录编号:
65080
目录名称:
STARLINK-34267
国际标识:
2025-167C
轨道中心:
EARTH
卫星名称:
星链-34267
卫星全名:
星链-34267 (STARLINK-34267)
卫星状态:
在轨 (已飞行396 天)
发射日期:
2025-08-04 UTC
国别 :
美国 (US)
星等 :
--
轨道信息
数据来源 国际轨道数据 AOE轨道数据
星历时间 2026-09-04T09:32:42+0800
16小时前
查看轨道信息
2026-08-31T02:00:00+0800
5天前
查看轨道信息
半长轴 6840.835km 6840.891km
偏心率 0.00015 0.0001418
轨道倾角 53.159° 53.157°
近地点辐角 98.243° 85.646°
升交点赤经 272.228° 292.399°
平近点角 261.874° 189.398°
近地点 461.671km 461.783km
远地点 463.725km 463.725km
周期 93.848分钟 93.849分钟
每日圈数 15.344019 15.343832
详细信息
固有亮度:
5
最大亮度:
2.5
卫星平台:
Starlink V1.0
覆盖范围:
全球
运营商:
太空探索技术公司
运营商所在国:
美国
制造商(研发单位):
太空探索技术公司
制造商所在国:
美国
使用方式:
暂无
卫星简介
Starlink 计划是 SpaceX 推出的全球卫星互联网项目,通过发射低轨道卫星,为全球尤其是偏远地区提供高速、低延迟的互联网服务。自 2019 年起,Starlink 已部署数千颗卫星,旨在缩小全球数字鸿沟,推动互联网普及。该项目还为军事、航空等行业提供通信支持,带来广泛经济效益。
2D轨道图
3D轨道图
轨道高度分析图
轨道倾角分析图
轨道综合分析图
查看轨道综合分析图
交会数据列表
事件ID 空间交会对象 最接近时刻(TCA) 交会距离 交会风险概率(CRP) 交会风险指数(CRI) 操作
CDM_260906-124106-403406-508021
2026-09-06T
12:41:50+0000
0.527 km
远距离
1.559373E-4 高风险 0.79
CDM_260906-184206-060006-508021
2026-09-06T
18:42:08+0000
0.658 km
远距离
6.436469E-5 中风险 0.71
CDM_260906-201506-060006-508021
2026-09-06T
20:15:55+0000
2.501 km
极远距离
1.163205E-6 低风险 0.36